{"data":{"norad_id":49028,"epoch":"2026-09-20T19:53:04.989408Z","epoch_age_seconds":72549,"freshness":"FRESH","line1":"1 49028U 21065C   26263.82852997  .00001702  00000+0  12588-3 0  9992","line2":"2 49028  34.9936  49.6986 0000975 287.1420  72.9181 15.03072730283027","mean_motion":15.0307273,"eccentricity":9.75e-5,"inclination_deg":34.9936,"raan_deg":49.6986,"arg_perigee_deg":287.142,"mean_anomaly_deg":72.9181,"bstar":0.00012588,"rev_number":28302,"period_min":95.803747301037,"perigee_km":556.75175063022,"apogee_km":558.10418579902,"semimajor_km":6935.5649682146,"source":"CELESTRAK","updated_at":"2026-09-21T09:00:07.942529Z"}}